Regional Weather Roundup
Issued by NWS

Home | Current Version | Previous Version | Graphics & Text | Print | Product List | Glossary On
Versions: 1 2 3 4 5 6 7 8 9 10 11 12 13 14 15 16 17 18 19 20 21 22 23 24 25 26 27 28 29 30 31 32 33 34 35 36 37 38 39 40 41 42 43 44 45 46 47 48 49 50
000
ASUS43 KMPX 190501
RWRMN
WEATHER ROUNDUP FOR MINNESOTA
NATIONAL WEATHER SERVICE TWIN CITIES/CHANHASSEN MN
1200 AM CDT SAT APR 19 2014


NOTE: "FAIR" INDICATES FEW OR NO CLOUDS BELOW 12,000 FEET WITH NO
SIGNIFICANT WEATHER AND/OR OBSTRUCTIONS TO VISIBILITY. N/A MEANS
CURRENT SKY AND/OR WEATHER CONDITIONS ARE NOT AVAILABLE.

MNZ060>063-068>070-190600-
   Twin Cities Metro

CITY           SKY/WX    TMP DP  RH WIND       PRES   REMARKS
TWIN CITIES    CLOUDY    45  27  49 E14       30.19F
ST PAUL        CLOUDY    44  27  51 SE12      30.21F
CRYSTAL        CLOUDY    44  26  49 E8        30.18F
BLAINE         CLOUDY    45  28  53 E12G17    30.19F
EDEN PRAIRIE   CLOUDY    48  27  44 SE16      30.17S
LAKEVILLE      CLOUDY    41  28  60 E8        30.19S
SOUTH ST PAUL  CLOUDY    47  27  45 SE6       30.20S
LAKE ELMO      FAIR      43  28  56 E14       30.22F
$$
MNZ001>005-007-008-013>017-022>024-027-028-190600-
   Northwest Minnesota

CITY           SKY/WX    TMP DP  RH WIND       PRES   REMARKS
BEMIDJI        CLOUDY    39  20  46 SE17G28   30.07F
HALLOCK        CLOUDY    45  23  42 SE24G33   29.89F
ROSEAU         CLOUDY    39  28  65 E15G24    30.03F
WARROAD        CLOUDY    37  30  75 E21G28    30.07F
THIEF RVR FALL CLOUDY    43  23  45 SE23G33   29.95F
FOSSTON        CLOUDY    41  23  48 SE22G35   29.97S
DETROIT LAKES  CLOUDY    41  27  56 SE25G37   29.98S
MOORHEAD       CLOUDY    46  30  53 SE30G43   29.88F
PARK RAPIDS    CLOUDY    41  22  46 SE23G29   30.04F
$$
MNZ006-009>011-018-025>026-190600-
   North Central Minnesota

CITY           SKY/WX    TMP DP  RH WIND       PRES   REMARKS
BAUDETTE       CLOUDY    38  25  59 SE14G28   30.13F
FLAG ISLAND    LGT SNOW  36  28  75 SE14G24   30.14F
INTL FALLS     CLOUDY    37  19  48 SE12G22   30.23S
WASKISH        CLOUDY    39  18  41 E17G26    30.11F
BIG FORK       CLOUDY    37  18  44 E14G20    30.19F
LONGVILLE      CLOUDY    37  19  48 E10G21    30.12F
GRAND RAPIDS   CLOUDY    36  18  48 SE10      30.19F
CRANE LAKE     CLOUDY    34  21  60 SE6       30.30F WCI  29
ORR            CLOUDY    34  18  51 SE8       30.24F WCI  27
COOK           CLOUDY    34  21  60 E7        30.27F WCI  28
$$
MNZ012-019>021-037-190600-
   Northeast Minnesota

CITY           SKY/WX    TMP DP  RH WIND       PRES   REMARKS
DULUTH         CLOUDY    31  21  66 E16       30.28F WCI  20
ELY            CLOUDY    32  19  59 SE8       30.31S WCI  25
HIBBING        CLOUDY    34  19  54 E13       30.25F WCI  25
EVELETH        CLOUDY    32  21  64 E8        30.28F WCI  25
DULUTH HARBOR  CLOUDY    32  28  86 NE12      30.33F WCI  23
TWO HARBORS    CLOUDY    30  21  69 NE9       30.31F WCI  22
SILVER BAY     CLOUDY    28  27  93 NE7       30.34S WCI  21
GRAND MARAIS     N/A     30  23  75 NE3       30.41R
G MARAIS ARPRT MOCLDY    27  18  69 E5        30.36R WCI  21
$$
MNZ029>031-032-039>041-046>048-054>057-064-190600-
   West Central Minnesota

CITY           SKY/WX    TMP DP  RH WIND       PRES   REMARKS
FERGUS FALLS   CLOUDY    45  27  49 SE29G36   29.92S
WHEATON        CLOUDY    48  37  66 SE36G43   29.89F
MORRIS         CLOUDY    45  34  65 SE29G38   29.95F
ALEXANDRIA     CLOUDY    41  28  60 SE23G33   30.03F
ELBOW LAKE     FAIR      42  31  64 SE25G36   29.95F
WADENA         CLOUDY    39  25  56 SE21      30.03F
GLENWOOD       CLOUDY    41  30  65 SE18G28   30.04F
APPLETON       CLOUDY    45  36  70 SE23G33   29.96F
BENSON         CLOUDY    46  34  61 S28G38    30.00F
ORTONVILLE     CLOUDY    45  34  65 SE21G30   29.92F
MADISON        CLOUDY    48  37  66 SE24G32   29.95F
WILLMAR        FAIR      45  32  61 SE25G33   30.06F
$$
MNZ033>034-036-042>043-049>051-058-059-190600-
   Central Minnesota

CITY           SKY/WX    TMP DP  RH WIND       PRES   REMARKS
ST CLOUD       CLOUDY    42  25  50 E12G21    30.14F
SAUK CENTRE    FAIR      41  28  58 E18G24    30.06F
PAYNESVILLE    CLOUDY    42  28  57 E14G20    30.09F
AITKIN         CLOUDY    39  23  52 E7        30.16F
PINE RIVER     CLOUDY    37  23  56 SE16G24   30.15F
BRAINERD       CLOUDY    45  21  38 SE15G25   30.14F
STAPLES        CLOUDY    41  21  45 E13G22    30.08F
LONG PRAIRIE   FAIR      39  27  60 E16G22    30.08F
LITTLE FALLS   CLOUDY    41  25  52 E14G23    30.11F
LITCHFIELD     CLOUDY    43  30  61 SE17      30.11F
BUFFALO        CLOUDY    41  29  61 E10       30.16F
MAPLE LAKE     CLOUDY    41  31  67 E7        30.16S
$$
MNZ037-044-045-052-053-190600-
   East Central Minnesota

CITY           SKY/WX    TMP DP  RH WIND       PRES   REMARKS
PRINCETON      CLOUDY    43  27  52 E13G21    30.18F
MORA           CLOUDY    37  23  56 E12G18    30.22F
CAMBRIDGE      CLOUDY    43  28  56 E8        30.18F
RUSH CITY      CLOUDY    39  24  54 E7        30.22F
MOOSE LAKE     CLOUDY    34  25  69 E5        30.24F WCI  30
HINCKLEY       FAIR      41  25  52 E10       30.23F
CLOQUET        CLOUDY    34  21  60 E12G18    30.26F WCI  25
MCGREGOR       CLOUDY    36  25  64 E14       30.21F
$$
MNZ071>073-080-081-089-090-097-098-190600-
   Southwest Minnesota

CITY           SKY/WX    TMP DP  RH WIND       PRES   REMARKS
MONTEVIDEO     CLOUDY    45  36  70 S21       30.01S
GRANITE FALLS  CLOUDY    47  34  59 E25G33    30.02F
CANBY          CLOUDY    45  37  74 SE13      29.95F
MARSHALL       CLOUDY    50  34  53 SE18G29   29.98F
REDWOOD FALLS  CLOUDY    48  34  58 SE17G25   30.05F
OLIVIA         CLOUDY    43  34  70 SE16      30.06F
PIPESTONE      CLOUDY    52  36  54 S22G28    29.94F
WINDOM         CLOUDY    50  30  46 SE20G25   30.05S
WORTHINGTON    CLOUDY    52  30  43 SE17G25   30.04S
JACKSON        CLOUDY    50  30  46 SE21G29   30.07S
TRACY          CLOUDY    50  34  55 SE16G23   30.01F
SLAYTON        CLOUDY    47  34  59 SE18G25   30.01F
$$
MNZ065>067-074>077-082>085-091>093-190600-
   South Central Minnesota

CITY           SKY/WX    TMP DP  RH WIND       PRES   REMARKS
MANKATO        CLOUDY    46  34  61 SE17      30.14S
NEW ULM        CLOUDY    48  34  57 SE15G26   30.10S
ST JAMES       CLOUDY    48  34  57 SE16      30.09F
FAIRMONT       CLOUDY    48  28  46 SE21      30.11S
GLENCOE        CLOUDY    45  30  57 E14       30.13S
FARIBAULT      CLOUDY    48  27  43 E15       30.18S
OWATONNA       MOCLDY    45  30  57 SE15      30.17S
WASECA         MOCLDY    45  34  65 E15       30.17R
ALBERT LEA     MOCLDY    46  34  61 SE13      30.16S
$$
MNZ078>079-086>088-094>096-190600-
   Southeast Minnesota

CITY           SKY/WX    TMP DP  RH WIND       PRES   REMARKS
ROCHESTER      PTCLDY    42  29  59 SE15      30.21R
RED WING       PTCLDY    46  27  46 E8        30.22S
STANTON        MOCLDY    47  27  46 E10G16    30.18F
DODGE CENTER   MOCLDY    45  32  61 SE14      30.19S
WINONA         PTCLDY    43  30  61 CALM      30.26R
AUSTIN         PTCLDY    43  34  70 SE12      30.18F
PRESTON        CLEAR     45  29  53 SE7       30.23R
$$
ABBREVIATIONS USED IN REMARKS
   TC - TEMPERATURES IN CELSIUS
  WCI - WIND CHILL INDEX
   HX - HEAT INDEX
  VSB - VISIBILITY
$$


USA.gov is the U.S. government's official web portal to all federal, state and local government web resources and services.